Hourly Data Report for October 11, 2014

All times are specified in Local Standard Time (LST). Add 1 hour to adjust for Daylight Saving Time where and when it is observed.

HALL BEACH A
NUNAVUT

68°46'33.000" N
81°14'33.000" W
9.10 m
2402354
71293
YUX

Download Data

Hourly Data (October 2014)
Hourly Data Report for October 11, 2014
Temp Definition
°C
Dew Point Temp Definition
°C
Rel Hum Definition
%
Wind Dir Definition
10's deg

Wind Spd Definition
km/h
Visibility Definition
km
Stn Press Definition
kPa
Hmdx Definition


Wind Chill Definition


Weather Definition


TIME
00:00 Legend Double Dagger -1.2 -1.5 98 2 32 14.5 99.42   -8 LegendNANA
01:00 Legend Double Dagger -0.6 -1.3 95 4 32 11.3 99.39   -7 Snow
02:00 Legend Double Dagger -0.3 -1.4 92 5 26 16.1 99.38   -6 LegendNANA
03:00 Legend Double Dagger -0.3 -1.4 92 5 28 16.1 99.40   -7 LegendNANA
04:00 Legend Double Dagger -0.3 -1.4 92 6 22 16.1 99.43   -6 LegendNANA
05:00 Legend Double Dagger -0.2 -1.2 93 6 21 16.1 99.44   -6 LegendNANA
06:00 Legend Double Dagger -0.7 -1.4 95 5 18 16.1 99.44   -6 LegendNANA
07:00 Legend Double Dagger -0.6 -1.3 95 5 21 16.1 99.47   -6 LegendNANA
08:00 Legend Double Dagger -0.5 -1.1 96 6 21 16.1 99.50   -6 LegendNANA
09:00 Legend Double Dagger -0.4 -1.0 96 7 21 16.1 99.51   -6 LegendNANA
10:00 Legend Double Dagger -0.3 -0.7 97 6 22 16.1 99.50   -6 Snow
11:00 Legend Double Dagger -0.4 -0.7 98 6 18 16.1 99.53   -5 LegendNANA
12:00 Legend Double Dagger -0.2 -0.5 98 7 22 16.1 99.56   -6 Snow
13:00 Legend Double Dagger -0.2 -0.5 98 7 21 16.1 99.58   -6 Snow
14:00 Legend Double Dagger -0.4 -0.7 98 6 18 16.1 99.62   -5 LegendNANA
15:00 Legend Double Dagger -0.4 -0.5 99 8 17 2.4 99.66   -5 Snow
16:00 Legend Double Dagger -0.5 -0.6 99 8 13 2.0 99.68   -5 Snow
17:00 Legend Double Dagger -0.6 -0.7 99 6 13 1.6 99.73   -5 Snow
18:00 Legend Double Dagger -0.8 -0.9 99 6 13 2.4 99.76   -5 Snow
19:00 Legend Double Dagger -0.6 -0.7 99 6 15 4.8 99.78   -5 Snow
20:00 Legend Double Dagger -0.7 -0.8 99 6 13 4.0 99.82   -5 Snow
21:00 Legend Double Dagger -0.6 -0.7 99 5 11 16.1 99.84   -4 Rain,Snow
22:00 Legend Double Dagger -0.8 -0.8 100 4 17 16.1 99.83   -6 LegendNANA
23:00 Legend Double Dagger -0.8 -0.8 100 5 17 16.1 99.87   -6 LegendNANA

Notes on Data Quality.

Legend

  • E = Estimated
  • M = Missing
  • NA = Not Available
  • ‡ = Partner data that is not subject to review by the National Climate Archives
Date modified: